Eagle, AK

4:16 AM AKDT on May 23, 2017 (GMT -0800)
Eagle

Weather History for PAEG - October, 2012

Change the Weather History Date:

Friday, October 26, 2012

  Actual Average (PABN) Record (PABN)
Temperature  
Mean Temperature 2 °F -  
Max Temperature 12 °F 18 °F 41 °F (2006)
Min Temperature -9 °F 9 °F -7 °F (2012)
Degree Days  
Heating Degree Days 64    
Moisture  
Dew Point -4 °F    
Average Humidity 77    
Maximum Humidity 83    
Minimum Humidity 64    
Precipitation  
Precipitation 0.00 in - - ()
Sea Level Pressure  
Sea Level Pressure 30.53 in    
Wind  
Wind Speed 1 mph (SSE)    
Max Wind Speed 4 mph    
Max Gust Speed -    
Visibility 10 miles    
Events      
Averages and records for this station are not official NWS values.
T = Trace of Precipitation, MM = Missing Value Source: NWS Daily Summary

Daily Weather History Graph

Daily Weather History Graph

Search for Another Location

Airport or City:

Trip Planner

Search our weather history database for the weather conditions in past years. The results will help you decide how hot, cold, wet, or windy it might be!

Date:

Astronomy

Oct. 26, 2012 Rise Set
Actual Time 8:54 AM AKDT 5:21 PM AKDT
Civil Twilight 8:01 AM AKDT 6:14 PM AKDT
Nautical Twilight 7:03 AM AKDT 7:11 PM AKDT
Astronomical Twilight 6:07 AM AKDT 8:08 PM AKDT
Moon 4:23 PM AKDT (10/26) 5:07 AM AKDT (10/26)
Length of Visible Light 10h 13m
Length of Day
8h 27m
Waxing Gibbous, 92% of the Moon is Illuminated
Oct 26
Waxing Gibbous
Oct 29
Full
Nov 6
Last Quarter
Nov 13
New
Nov 20
First Quarter

Hourly Weather History & Observations

Time (AKDT) Temp. Windchill Dew Point Humidity Pressure Visibility Wind Dir Wind Speed Gust Speed Precip Events Conditions
12:53 AM -5.1 °F -13.6 °F -9.9 °F 80% 30.60 in 10.0 mi SSE 3.5 mph - N/A   Clear
1:53 AM -5.1 °F - -9.9 °F 80% 30.59 in 10.0 mi Calm Calm - N/A   Clear
2:53 AM -5.1 °F - -9.0 °F 83% 30.59 in 10.0 mi Calm Calm - N/A   Clear
3:53 AM -6.0 °F - -11.0 °F 79% 30.58 in 10.0 mi Calm Calm - N/A   Clear
4:53 AM -7.1 °F - -11.9 °F 79% 30.58 in 10.0 mi Calm Calm - N/A   Clear
5:53 AM -7.1 °F - -11.9 °F 79% 30.59 in 10.0 mi Calm Calm - N/A   Partly Cloudy
6:53 AM -9.0 °F - -14.1 °F 79% 30.59 in 10.0 mi Calm Calm - N/A   Clear
7:53 AM -9.9 °F - -15.0 °F 78% 30.59 in 10.0 mi Calm Calm - N/A   Clear
8:53 AM -9.9 °F - -16.1 °F 74% 30.58 in 10.0 mi Calm Calm - N/A   Clear
9:53 AM -6.0 °F - -11.0 °F 79% 30.58 in 10.0 mi Calm Calm - N/A   Partly Cloudy
10:53 AM 1.0 °F - -2.9 °F 83% 30.58 in 10.0 mi Calm Calm - N/A   Overcast
11:53 AM 3.9 °F - -2.0 °F 76% 30.56 in 10.0 mi Calm Calm - N/A   Clear
12:53 PM 7.0 °F - 1.0 °F 77% 30.54 in 10.0 mi Calm Calm - N/A   Overcast
1:53 PM 10.9 °F - 1.9 °F 67% 30.53 in 10.0 mi Calm Calm - N/A   Overcast
2:53 PM 12.0 °F - 1.9 °F 64% 30.51 in 10.0 mi Calm Calm - N/A   Overcast
3:53 PM 10.0 °F - 1.9 °F 70% 30.50 in 10.0 mi Calm Calm - N/A   Scattered Clouds
4:53 PM 6.1 °F - -0.0 °F 76% 30.49 in 10.0 mi Calm Calm - N/A   Overcast
5:53 PM 7.0 °F - 1.0 °F 77% 30.49 in 10.0 mi Calm Calm - N/A   Overcast
6:53 PM 8.1 °F - 1.9 °F 76% 30.48 in 10.0 mi Calm Calm - N/A   Overcast
7:53 PM 7.0 °F - 1.9 °F 80% 30.48 in 10.0 mi Calm Calm - N/A   Overcast
8:53 PM 5.0 °F - -0.0 °F 80% 30.47 in 10.0 mi Calm Calm - N/A   Overcast
9:53 PM 6.1 °F - 1.0 °F 80% 30.46 in 10.0 mi Calm Calm - N/A   Overcast
10:53 PM 7.0 °F - 1.9 °F 80% 30.44 in 10.0 mi Calm Calm - N/A   Overcast
11:53 PM 8.1 °F - 3.0 °F 80% 30.43 in 10.0 mi Calm Calm - N/A   Overcast